1500778800.3,59390,21.44,74346.3,6.63,-8.41,-10.75,0,*46
1500778801.52,59391,21.44,74348.8,6.63,-8.33,-10.75,0,*42
1500778802.72,59392,21.44,74348.3,6.63,-8.41,-10.93,0,*4C
1500778803.92,59393,21.44,74348.3,6.63,-8.45,-10.93,0,*49
1500778805.12,59394,21.44,74350.5,6.63,-8.45,-10.93,0,*4E
1500778806.32,59395,21.44,74350.8,6.63,-8.45,-10.93,0,*4F
1500778807.57,59396,21.44,74346.3,6.63,-8.51,-11.07,0,*45
1500778808.82,59397,21.44,74350.3,6.65,-8.51,-11.01,0,*44
1500778810.09,59398,21.44,74350.5,6.65,-8.51,-11.07,0,*4D
1500778811.29,59399,21.44,74348.0,6.63,-8.59,-11.19,0,*4D
1500778812.51,59400,21.44,74350.8,6.65,-8.59,-11.23,0,*45
1500778813.74,59401,21.44,74350.8,6.65,-8.59,-11.33,0,*45
1500778814.98,59402,21.44,74350.0,6.65,-8.59,-11.33,0,*46
1500778816.23,59403,21.44,74348.5,6.65,-8.71,-11.37,0,*49
1500778817.45,59404,21.44,74354.5,6.65,-8.63,-11.45,0,*48
1500778818.7,59405,21.44,74348.3,6.65,-8.75,-11.59,0,*43
1500778819.94,59406,21.44,74354.3,6.65,-8.75,-11.51,0,*48
1500778821.18,59407,21.44,74352.8,6.65,-8.75,-11.51,0,*49
1500778822.44,59408,21.44,74350.8,6.65,-8.85,-11.63,0,*48
1500778823.68,59409,21.44,74352.0,6.65,-8.97,-11.73,0,*4B
1500778824.93,59410,21.44,74348.0,6.65,-8.97,-11.73,0,*43
1500778826.17,59411,21.44,74348.8,6.65,-8.97,-11.77,0,*46
1500778827.42,59412,21.44,74348.5,6.65,-9.01,-11.85,0,*46
1500778828.7,59413,21.44,74348.5,6.65,-9.11,-11.93,0,*41
1500778829.98,59414,21.44,74350.8,6.65,-9.11,-11.93,0,*46
1500778831.23,59415,21.44,74350.0,6.65,-9.23,-11.93,0,*46
1500778832.47,59416,21.44,74352.5,6.65,-9.23,-12.07,0,*4B
1500778833.72,59417,21.44,74350.5,6.65,-9.27,-12.07,0,*4E
1500778834.97,59418,21.44,74348.0,6.65,-9.23,-12.07,0,*45
1500778836.22,59419,21.44,74348.0,6.65,-9.31,-12.07,0,*47
1500778837.46,59420,21.44,74348.0,6.65,-9.31,-12.07,0,*4D
1500778838.69,59421,21.44,74348.8,6.65,-9.31,-12.21,0,*48
1500778839.91,59422,21.44,74352.0,6.65,-9.31,-12.21,0,*4B
1500778841.18,59423,21.44,74350.5,6.65,-9.45,-12.35,0,*4C
1500778842.46,59424,21.44,74350.5,6.65,-9.45,-12.35,0,*4B
1500778843.72,59425,21.44,74350.5,6.65,-9.57,-12.35,0,*49
1500778844.99,59426,21.44,74346.5,6.65,-9.53,-12.35,0,*4E
1500778846.23,59427,21.44,74348.0,6.65,-9.53,-12.29,0,*42
1500778847.45,59428,21.44,74350.8,6.63,-9.57,-12.43,0,*43
1500778848.67,59429,21.44,74350.8,6.65,-9.67,-12.43,0,*47
1500778849.91,59430,21.44,74346.0,6.65,-9.71,-12.57,0,*4D
1500778851.13,59431,21.44,74350.8,6.63,-9.79,-12.61,0,*47
1500778852.4,59432,21.44,74346.3,6.65,-9.83,-12.61,0,*47
1500778853.63,59433,21.44,74348.0,6.63,-9.83,-12.57,0,*45
1500778854.85,59434,21.44,74350.8,6.63,-9.93,-12.61,0,*46
1500778856.09,59435,21.44,74346.0,6.65,-9.93,-12.61,0,*41
1500778857.3,59436,21.44,74344.3,6.63,-9.93,-12.57,0,*41
1500778858.54,59437,21.44,74350.8,6.65,-9.93,-12.61,0,*43
1500778859.76,59438,21.44,74348.0,6.63,-9.97,-12.71,0,*4F
1500778860.99,59439,21.44,74348.8,6.63,-10.05,-12.71,0,*7D
1500778862.2,59440,21.44,74346.8,6.63,-10.05,-12.57,0,*77
1500778863.42,59441,21.44,74350.0,6.63,-10.05,-12.57,0,*76
1500778864.66,59442,21.44,74344.5,6.65,-10.09,-12.61,0,*7A
1500778865.88,59443,21.44,74346.5,6.65,-9.97,-12.47,0,*40
1500778867.12,59444,21.44,74348.3,6.65,-10.09,-12.57,0,*79
1500778868.35,59445,21.44,74344.0,6.63,-10.15,-12.61,0,*76
1500778869.6,59446,21.44,74346.3,6.65,-10.15,-12.57,0,*76
1500778870.8,59447,21.44,74348.0,6.63,-10.15,-12.47,0,*70
1500778872.01,59448,21.44,74346.5,6.63,-10.15,-12.47,0,*7F
1500778873.21,59449,21.44,74346.0,6.63,-10.15,-12.43,0,*7A
1500778874.41,59450,21.44,74344.0,6.63,-10.15,-12.43,0,*72
1500778875.61,59451,21.44,74344.3,6.63,-10.09,-12.29,0,*72
1500778876.83,59452,21.44,74350.0,6.63,-10.09,-12.35,0,*7C
1500778878.06,59453,21.44,74350.3,6.65,-10.23,-12.47,0,*76
1500778879.26,59454,21.44,74348.3,6.63,-10.23,-12.43,0,*73
1500778880.46,59455,21.44,74346.3,6.63,-10.35,-12.47,0,*71
1500778881.69,59456,21.44,74350.8,6.65,-10.35,-12.43,0,*70
1500778882.89,59457,21.44,74350.0,6.63,-10.49,-12.47,0,*78
1500778884.14,59458,21.44,74348.3,6.65,-10.53,-12.57,0,*7B
1500778885.36,59459,21.44,74348.3,6.65,-10.49,-12.47,0,*70
1500778886.61,59460,21.44,74348.8,6.65,-10.63,-12.47,0,*72
1500778887.89,59461,21.44,74350.3,6.65,-10.75,-12.57,0,*75
1500778889.16,59462,21.44,74348.8,6.65,-10.75,-12.57,0,*76
1500778890.41,59463,21.44,74350.5,6.63,-10.79,-12.57,0,*7D
1500778891.66,59464,21.44,74350.3,6.65,-10.89,-12.61,0,*76
1500778892.91,59465,21.44,74346.3,6.65,-10.89,-12.61,0,*77
1500778894.15,59466,21.44,74348.0,6.65,-10.89,-12.57,0,*71
1500778895.38,59467,21.44,74348.0,6.63,-10.93,-12.57,0,*7D
1500778896.63,59468,21.44,74348.0,6.65,-11.01,-12.57,0,*7E
1500778897.83,59469,21.44,74350.0,6.63,-10.89,-12.43,0,*7D
1500778899.06,59470,21.44,74348.5,6.65,-10.93,-12.43,0,*78
1500778900.29,59471,21.44,74346.8,6.65,-11.01,-12.43,0,*73
1500778901.52,59472,21.44,74348.8,6.63,-11.01,-12.35,0,*77
1500778902.73,59473,21.44,74350.0,6.63,-10.93,-12.29,0,*71
1500778903.93,59474,21.44,74350.0,6.63,-10.93,-12.29,0,*76
1500778905.14,59475,21.44,74350.8,6.63,-11.01,-12.29,0,*7D
1500778906.34,59476,21.44,74346.5,6.63,-11.11,-12.29,0,*7F
1500778907.6,59477,21.44,74348.8,6.65,-11.11,-12.35,0,*75
1500778908.8,59478,21.44,74348.3,6.63,-11.19,-12.29,0,*79
1500778910.0,59479,21.44,74350.0,6.63,-11.23,-12.29,0,*71
1500778911.26,59480,21.44,74350.0,6.65,-11.23,-12.35,0,*7C
1500778912.49,59481,21.44,74350.0,6.63,-11.23,-12.35,0,*7B
1500778913.72,59482,21.44,74348.0,6.63,-11.33,-12.29,0,*74
1500778914.97,59483,21.44,74346.0,6.65,-11.33,-12.29,0,*73
1500778916.2,59484,21.44,74344.8,6.63,-11.23,-12.15,0,*7C
1500778917.43,59485,21.44,74344.3,6.63,-11.23,-12.07,0,*7E
1500778918.67,59486,21.44,74348.0,6.63,-11.37,-12.15,0,*7B
1500778919.93,59487,21.44,74348.0,6.65,-11.33,-12.03,0,*7F
1500778921.18,59488,21.44,74348.8,6.63,-11.37,-12.07,0,*76
1500778922.4,59489,21.44,74348.5,6.63,-11.33,-12.03,0,*77
1500778923.68,59490,21.44,74350.3,6.65,-11.33,-11.93,0,*73
1500778924.96,59491,21.44,74346.3,6.65,-11.37,-11.89,0,*7D
1500778926.21,59492,21.44,74350.8,6.63,-11.37,-11.85,0,*74
1500778927.47,59493,21.44,74344.8,6.65,-11.45,-11.89,0,*7A
1500778928.74,59494,21.44,74350.3,6.65,-11.37,-11.85,0,*74
1500778929.99,59495,21.44,74348.5,6.63,-11.51,-11.85,0,*73
1500778931.24,59496,21.44,74348.8,6.63,-11.51,-11.93,0,*77
1500778932.52,59497,21.44,74346.8,6.65,-11.59,-11.85,0,*7F
1500778933.79,59498,21.44,74346.8,6.65,-11.51,-11.77,0,*75
1500778935.06,59499,21.44,74346.0,6.65,-11.63,-11.77,0,*75
1500778936.34,59500,21.44,74348.0,6.65,-11.63,-11.73,0,*70
1500778937.61,59501,21.44,74348.0,6.65,-11.77,-11.73,0,*74
1500778938.88,59502,21.44,74348.8,6.65,-11.85,-11.73,0,*7A
1500778940.16,59503,21.44,74348.5,6.65,-11.85,-11.63,0,*7A
1500778941.44,59504,21.44,74348.5,6.65,-11.85,-11.63,0,*7D
1500778942.69,59505,21.44,74350.0,6.67,-11.73,-11.59,0,*7E
1500778943.95,59506,21.44,74348.0,6.67,-11.85,-11.67,0,*79
1500778945.2,59507,21.44,74348.5,6.67,-11.85,-11.59,0,*75
1500778946.45,59508,21.44,74350.5,6.67,-11.89,-11.67,0,*7B
1500778947.71,59509,21.44,74352.3,6.67,-11.97,-11.67,0,*75
1500778948.96,59510,21.38,74344.3,6.65,-12.03,-11.63,0,*75
1500778950.24,59511,21.44,74348.5,6.65,-11.93,-11.51,0,*7F
1500778951.49,59512,21.44,74352.3,6.65,-12.03,-11.59,0,*7E
1500778952.74,59513,21.44,74350.5,6.65,-12.03,-11.51,0,*77
1500778954.01,59514,21.44,74350.0,6.65,-12.15,-11.59,0,*7F
1500778955.28,59515,21.44,74350.5,6.65,-12.15,-11.59,0,*7E
1500778956.54,59516,21.44,74350.0,6.65,-12.21,-11.59,0,*7A
1500778957.82,59517,21.44,74348.0,6.65,-12.15,-11.51,0,*74
1500778959.05,59518,21.44,74350.5,6.67,-12.15,-11.41,0,*78
1500778960.3,59519,21.44,74348.0,6.65,-12.21,-11.37,0,*7D
1500778961.58,59520,21.44,74350.3,6.65,-12.07,-11.37,0,*73
1500778962.85,59521,21.44,74348.0,6.65,-12.15,-11.37,0,*71
1500778964.08,59522,21.44,74350.8,6.63,-12.29,-11.37,0,*7B
1500778965.33,59523,21.44,74346.5,6.65,-12.29,-11.37,0,*7C
1500778966.58,59524,21.44,74348.0,6.65,-12.21,-11.37,0,*73
1500778967.83,59525,21.44,74346.8,6.65,-12.15,-11.23,0,*70
1500778969.08,59526,21.44,74348.0,6.65,-12.29,-11.33,0,*7D
1500778970.31,59527,21.44,74348.8,6.65,-12.21,-11.23,0,*75
1500778971.56,59528,21.44,74348.8,6.65,-12.15,-11.19,0,*74
1500778972.79,59529,21.44,74346.3,6.65,-12.29,-11.11,0,*72
1500778974.03,59530,21.44,74348.0,6.65,-12.43,-11.33,0,*76
1500778975.25,59531,21.44,74348.3,6.63,-12.43,-11.33,0,*71
1500778976.47,59532,21.44,74346.8,6.63,-12.47,-11.33,0,*76
1500778977.74,59533,21.44,74346.3,6.65,-12.35,-11.33,0,*74
1500778978.99,59534,21.44,74350.3,6.65,-12.57,-11.23,0,*76
1500778980.19,59535,21.44,74346.8,6.63,-12.47,-11.23,0,*70
1500778981.43,59536,21.38,74346.3,6.65,-12.57,-11.23,0,*74
1500778982.68,59537,21.44,74350.5,6.65,-12.57,-11.23,0,*75
1500778983.91,59538,21.44,74346.3,6.63,-12.57,-11.23,0,*7C
1500778985.13,59539,21.44,74346.5,6.63,-12.61,-11.23,0,*78
1500778986.38,59540,21.44,74348.3,6.65,-12.57,-11.11,0,*74
1500778987.6,59541,21.44,74350.3,6.65,-12.47,-11.19,0,*7C
1500778988.88,59542,21.44,74346.3,6.65,-12.57,-11.07,0,*71
1500778990.1,59543,21.44,74344.3,6.65,-12.43,-11.11,0,*72
1500778991.35,59544,21.44,74348.8,6.65,-12.47,-11.07,0,*76
1500778992.63,59545,21.44,74344.5,6.65,-12.57,-11.07,0,*76
1500778993.86,59546,21.44,74346.3,6.65,-12.43,-11.01,0,*76
1500778995.11,59547,21.44,74348.3,6.65,-12.57,-11.01,0,*72
1500778996.33,59548,21.44,74346.8,6.63,-12.57,-11.11,0,*7A
1500778997.56,59549,21.38,74344.8,6.63,-12.57,-11.01,0,*7A
1500778998.78,59550,21.44,74350.0,6.65,-12.47,-11.01,0,*75
1500779000.06,59551,21.44,74346.8,6.65,-12.61,-11.07,0,*76
1500779001.31,59552,21.44,74346.0,6.63,-12.71,-11.07,0,*72
1500779002.54,59553,21.44,74350.0,6.65,-12.47,-10.89,0,*77
1500779003.76,59554,21.44,74348.3,6.65,-12.43,-10.89,0,*74
1500779005.04,59555,21.44,74346.8,6.65,-12.35,-10.75,0,*77
1500779006.27,59556,21.44,74344.8,6.67,-12.57,-10.85,0,*7D
1500779007.5,59557,21.44,74348.8,6.67,-12.29,-10.71,0,*7E
1500779008.76,59558,21.44,74346.8,6.69,-12.25,-10.67,0,*74
1500779010.01,59559,21.44,74346.3,6.69,-12.25,-10.71,0,*72
1500779011.24,59560,21.44,74348.8,6.67,-12.29,-10.71,0,*7A
1500779012.48,59561,21.44,74346.8,6.69,-12.21,-10.53,0,*7D
1500779013.71,59562,21.44,74344.3,6.67,-12.25,-10.63,0,*77
1500779014.95,59563,21.44,74346.8,6.69,-12.21,-10.57,0,*7B
1500779016.2,59564,21.44,74346.5,6.69,-12.07,-10.45,0,*7B
1500779017.45,59565,21.44,74344.3,6.69,-12.25,-10.71,0,*7D
1500779018.71,59566,21.44,74346.3,6.69,-12.25,-10.67,0,*79
1500779019.96,59567,21.44,74346.3,6.69,-12.25,-10.71,0,*7F
1500779021.18,59568,21.44,74344.3,6.69,-12.39,-10.85,0,*76
1500779022.41,59569,21.44,74344.5,6.71,-12.25,-10.71,0,*78
1500779023.66,59570,21.44,74346.5,6.71,-12.35,-10.71,0,*71
1500779024.86,59571,21.44,74346.3,6.71,-12.47,-10.93,0,*79
1500779026.06,59572,21.44,74344.3,6.71,-12.39,-10.85,0,*74
1500779027.31,59573,21.44,74344.3,6.71,-12.35,-10.71,0,*72
1500779028.53,59574,21.44,74342.3,6.71,-12.39,-10.71,0,*79
1500779029.73,59575,21.44,74340.8,6.71,-12.39,-10.85,0,*73
1500779030.96,59576,21.44,74342.8,6.73,-12.47,-10.97,0,*78
1500779032.16,59577,21.44,74342.8,6.71,-12.47,-10.93,0,*7F
1500779033.41,59578,21.44,74346.0,6.73,-12.35,-10.93,0,*77
1500779034.63,59579,21.44,74342.8,6.71,-12.61,-11.15,0,*7A
1500779035.89,59580,21.44,74340.8,6.73,-12.47,-11.07,0,*79
1500779037.14,59581,21.44,74342.0,6.73,-12.43,-11.07,0,*7C
1500779038.34,59582,21.44,74346.0,6.71,-12.39,-11.01,0,*76
1500779039.58,59583,21.44,74342.8,6.73,-12.57,-11.19,0,*74
1500779040.83,59584,21.44,74346.5,6.73,-12.57,-11.19,0,*73
1500779042.05,59585,21.44,74346.3,6.71,-12.61,-11.23,0,*7C
1500779043.3,59586,21.44,74346.0,6.73,-12.57,-11.11,0,*79
1500779044.53,59587,21.44,74344.0,6.73,-12.47,-11.11,0,*79
1500779045.75,59588,21.44,74340.3,6.73,-12.43,-11.11,0,*72
1500779047.0,59589,21.44,74346.0,6.73,-12.57,-11.19,0,*7E
1500779048.24,59590,21.38,74342.8,6.73,-12.57,-11.23,0,*7F
1500779049.51,59591,21.44,74346.3,6.73,-12.61,-11.33,0,*7A
1500779050.77,59592,21.44,74340.8,6.73,-12.61,-11.33,0,*79
1500779052.02,59593,21.44,74340.0,6.75,-12.61,-11.37,0,*7A
1500779053.29,59594,21.44,74342.8,6.73,-12.61,-11.37,0,*7B
1500779054.54,59595,21.44,74344.3,6.73,-12.57,-11.23,0,*7A
1500779055.81,59596,21.44,74342.8,6.73,-12.57,-11.33,0,*78
1500779057.05,59597,21.44,74342.8,6.75,-12.61,-11.37,0,*7E
1500779058.28,59598,21.44,74344.3,6.75,-12.61,-11.45,0,*74
1500779059.5,59599,21.44,74342.3,6.73,-12.47,-11.23,0,*77
1500779060.74,59600,21.44,74344.3,6.73,-12.43,-11.33,0,*71
1500779061.99,59601,21.44,74342.8,6.73,-12.57,-11.45,0,*74
1500779063.24,59602,21.44,74340.5,6.73,-12.57,-11.45,0,*77
1500779064.51,59603,21.44,74346.5,6.73,-12.65,-11.59,0,*7A
1500779065.78,59604,21.44,74346.8,6.73,-12.61,-11.59,0,*79
1500779067.04,59605,21.44,74340.0,6.75,-12.61,-11.63,0,*77
1500779068.28,59606,21.44,74346.8,6.75,-12.61,-11.59,0,*7D
1500779069.53,59607,21.44,74348.3,6.75,-12.61,-11.59,0,*7C
1500779070.79,59608,21.44,74342.0,6.75,-12.65,-11.63,0,*7E
1500779072.03,59609,21.44,74344.0,6.79,-12.61,-11.59,0,*7E
1500779073.28,59610,21.44,74344.5,6.75,-12.65,-11.63,0,*77
1500779074.53,59611,21.44,74344.5,6.75,-12.71,-11.73,0,*72
1500779075.78,59612,21.44,74342.5,6.75,-12.75,-11.81,0,*78
1500779077.04,59613,21.44,74346.0,6.75,-12.75,-11.73,0,*74
1500779078.28,59614,21.44,74344.3,6.79,-12.71,-11.77,0,*7F
1500779079.52,59615,21.44,74344.3,6.79,-12.71,-11.73,0,*7A
1500779080.76,59616,21.44,74344.8,6.79,-12.71,-11.77,0,*7D
1500779082.02,59617,21.44,74346.5,6.75,-12.79,-11.89,0,*79
1500779083.26,59618,21.44,74346.5,6.79,-12.57,-11.67,0,*76
1500779084.51,59619,21.44,74344.0,6.75,-12.57,-11.59,0,*76
1500779085.76,59620,21.44,74346.5,6.79,-12.57,-11.73,0,*78
1500779087.0,59621,21.44,74344.3,6.79,-12.57,-11.77,0,*7D
1500779088.24,59622,21.38,74342.8,6.79,-12.57,-11.67,0,*7F
1500779089.47,59623,21.44,74346.3,6.79,-12.53,-11.45,0,*7A
1500779090.72,59624,21.44,74344.8,6.79,-12.53,-11.67,0,*7D
1500779091.92,59625,21.44,74342.8,6.75,-12.43,-11.45,0,*71
1500779093.14,59626,21.44,74342.8,6.75,-12.43,-11.59,0,*7F
1500779094.36,59627,21.44,74344.3,6.79,-12.43,-11.67,0,*7F
1500779095.57,59628,21.44,74346.3,6.79,-12.39,-11.59,0,*70
1500779096.79,59629,21.44,74342.8,6.79,-12.39,-11.67,0,*7C
1500779098.01,59630,21.44,74344.0,6.79,-12.39,-11.67,0,*74
1500779099.29,59631,21.44,74342.3,6.81,-12.35,-11.55,0,*7F
1500779100.51,59632,21.44,74342.0,6.83,-12.47,-11.67,0,*7A
1500779101.76,59633,21.38,74338.5,6.81,-12.39,-11.67,0,*70
1500779102.99,59634,21.38,74334.8,6.83,-12.39,-11.63,0,*71
1500779104.26,59635,21.44,74340.5,6.81,-12.35,-11.55,0,*7B
1500779105.54,59636,21.44,74336.0,6.81,-12.35,-11.55,0,*78
1500779106.79,59637,21.44,74336.5,6.81,-12.25,-11.63,0,*7D
1500779108.05,59638,21.44,74332.8,6.83,-12.35,-11.63,0,*71
1500779109.27,59639,21.44,74336.0,6.83,-12.39,-11.67,0,*78
1500779110.49,59640,21.44,74332.5,6.83,-12.47,-11.81,0,*77
1500779111.73,59641,21.44,74338.0,6.85,-12.29,-11.63,0,*74
1500779112.96,59642,21.44,74336.5,6.85,-12.21,-11.51,0,*7E
1500779114.19,59643,21.44,74332.0,6.85,-12.29,-11.67,0,*72
1500779115.41,59644,21.44,74332.5,6.85,-12.47,-11.89,0,*7D
1500779116.63,59645,21.44,74334.8,6.85,-12.47,-11.81,0,*74
1500779117.87,59646,21.44,74330.3,6.85,-12.29,-11.63,0,*73
1500779119.11,59647,21.44,74334.0,6.85,-12.35,-11.77,0,*7A
1500779120.36,59648,21.44,74334.5,6.87,-12.43,-11.81,0,*7F
1500779121.61,59649,21.44,74332.5,6.87,-12.47,-11.93,0,*79
1500779122.83,59650,21.44,74330.5,6.85,-12.47,-11.81,0,*70
1500779124.08,59651,21.44,74332.3,6.87,-12.43,-11.89,0,*7F
1500779125.3,59652,21.38,74328.8,6.85,-12.43,-11.77,0,*7F
1500779126.55,59653,21.38,74334.8,6.85,-12.35,-11.81,0,*76
1500779127.79,59654,21.44,74334.3,6.87,-12.43,-11.81,0,*72
1500779129.07,59655,21.44,74334.5,6.87,-12.35,-11.77,0,*7B
1500779130.29,59656,21.44,74338.3,6.85,-12.43,-11.93,0,*71
1500779131.52,59657,21.44,74336.0,6.85,-12.43,-11.93,0,*70
1500779132.79,59658,21.38,74332.5,6.87,-12.35,-11.81,0,*7F
1500779134.04,59659,21.44,74336.5,6.87,-12.43,-11.89,0,*77
1500779135.3,59660,21.44,74332.3,6.87,-12.47,-11.93,0,*72
1500779136.52,59661,21.44,74338.0,6.89,-12.43,-11.89,0,*72
1500779137.75,59662,21.44,74336.8,6.85,-12.61,-12.03,0,*7C
1500779139.03,59663,21.44,74338.3,6.87,-12.53,-12.07,0,*7A
1500779140.28,59664,21.44,74340.8,6.87,-12.47,-12.07,0,*78
1500779141.5,59665,21.38,74336.0,6.89,-12.43,-11.97,0,*79
1500779142.73,59666,21.44,74336.5,6.89,-12.29,-11.85,0,*75
1500779143.96,59667,21.44,74336.8,6.89,-12.39,-11.89,0,*79
1500779145.19,59668,21.38,74334.3,6.89,-12.39,-11.85,0,*7A
1500779146.44,59669,21.44,74336.5,6.91,-12.25,-11.81,0,*7B
1500779147.67,59670,21.44,74336.0,6.89,-12.39,-11.89,0,*7F
1500779148.93,59671,21.44,74336.3,6.91,-12.25,-11.85,0,*76
1500779150.16,59672,21.44,74338.0,6.89,-12.29,-11.89,0,*7C
1500779151.42,59673,21.44,74334.5,6.91,-12.25,-11.85,0,*74
1500779152.68,59674,21.44,74334.5,6.91,-12.21,-11.85,0,*77
1500779153.91,59675,21.38,74332.5,6.89,-12.25,-11.89,0,*77
1500779155.16,59676,21.38,74334.5,6.89,-12.35,-11.85,0,*79
1500779156.44,59677,21.44,74338.3,6.91,-12.35,-11.85,0,*71
1500779157.72,59678,21.44,74336.5,6.91,-12.35,-11.85,0,*7E
1500779159.0,59679,21.44,74340.5,6.91,-12.35,-11.97,0,*7C
1500779160.28,59680,21.44,74336.5,6.91,-12.35,-11.97,0,*7A
1500779161.51,59681,21.44,74338.3,6.89,-12.43,-11.97,0,*73
1500779162.76,59682,21.44,74336.0,6.91,-12.39,-11.93,0,*70
1500779163.98,59683,21.44,74336.0,6.93,-12.43,-11.97,0,*7A
1500779165.21,59684,21.44,74334.5,6.93,-12.43,-12.07,0,*77
1500779166.43,59685,21.44,74336.3,6.93,-12.39,-11.93,0,*75
1500779167.65,59686,21.38,74334.3,6.93,-12.43,-11.97,0,*7F
1500779168.91,59687,21.38,74332.5,6.91,-12.39,-11.93,0,*75
1500779170.16,59688,21.38,74334.3,6.91,-12.43,-11.97,0,*73
1500779171.41,59689,21.44,74336.0,6.91,-12.43,-11.97,0,*72
1500779172.69,59690,21.44,74338.8,6.91,-12.53,-11.97,0,*7B
1500779173.95,59691,21.44,74338.3,6.91,-12.39,-11.93,0,*72
1500779175.2,59692,21.44,74334.5,6.91,-12.39,-11.97,0,*75
1500779176.42,59693,21.44,74336.0,6.93,-12.39,-11.93,0,*72
1500779177.67,59694,21.44,74336.5,6.91,-12.25,-11.81,0,*79
1500779178.92,59695,21.44,74334.5,6.93,-12.35,-11.81,0,*7B
1500779180.17,59696,21.44,74334.8,6.93,-12.35,-11.85,0,*7C
1500779181.39,59697,21.44,74336.8,6.93,-12.29,-11.81,0,*74
1500779182.67,59698,21.44,74336.8,6.91,-12.35,-11.85,0,*70
1500779183.92,59699,21.44,74338.3,6.91,-12.43,-11.97,0,*73
1500779185.14,59700,21.44,74338.3,6.93,-12.43,-12.07,0,*7A
1500779186.4,59701,21.44,74336.0,6.91,-12.43,-11.93,0,*77
1500779187.63,59702,21.44,74336.8,6.93,-12.39,-11.93,0,*7B
1500779188.85,59703,21.44,74336.8,6.93,-12.39,-11.93,0,*7A
1500779190.07,59704,21.44,74338.5,6.93,-12.39,-11.85,0,*7A
1500779191.32,59705,21.44,74338.3,6.93,-12.35,-11.81,0,*73
1500779192.56,59706,21.44,74336.3,6.93,-12.35,-11.85,0,*74
1500779193.81,59707,21.44,74334.8,6.93,-12.35,-11.85,0,*75
1500779195.08,59708,21.44,74340.5,6.95,-12.35,-11.81,0,*78
1500779196.33,59709,21.44,74336.8,6.93,-12.35,-11.85,0,*7B
1500779197.58,59710,21.44,74338.8,6.91,-12.39,-11.85,0,*7D
1500779198.8,59711,21.44,74338.5,6.93,-12.43,-11.85,0,*73
1500779200.05,59712,21.38,74336.5,6.93,-12.57,-11.97,0,*76
1500779201.31,59713,21.44,74338.3,6.91,-12.39,-11.93,0,*79
1500779202.56,59714,21.38,74338.0,6.91,-12.25,-11.73,0,*7D
1500779203.79,59715,21.38,74332.0,6.93,-12.21,-11.59,0,*72
1500779205.04,59716,21.44,74332.5,6.93,-11.97,-11.51,0,*77
1500779206.26,59717,21.38,74332.0,6.93,-11.97,-11.41,0,*77
1500779207.51,59718,21.38,74334.0,6.93,-12.11,-11.51,0,*74
1500779208.74,59719,21.44,74334.3,6.93,-11.93,-11.41,0,*7D
1500779210.02,59720,21.38,74334.0,6.95,-11.89,-11.37,0,*7B
1500779211.27,59721,21.44,74334.8,6.93,-11.93,-11.29,0,*78
1500779212.51,59722,21.44,74332.5,6.95,-11.81,-11.23,0,*74
1500779213.79,59723,21.44,74332.0,6.95,-11.93,-11.37,0,*73
1500779215.04,59724,21.38,74332.0,6.95,-11.89,-11.23,0,*7A
1500779216.28,59725,21.44,74336.5,6.95,-11.81,-11.11,0,*72
1500779217.53,59726,21.38,74334.3,6.95,-11.67,-10.97,0,*76
1500779218.78,59727,21.38,74334.3,6.95,-11.81,-11.19,0,*78
1500779220.02,59728,21.44,74336.8,6.97,-11.89,-11.33,0,*75
1500779221.23,59729,21.38,74334.3,6.97,-12.03,-11.37,0,*71
1500779222.45,59730,21.38,74336.0,6.97,-12.03,-11.33,0,*7D
1500779223.7,59731,21.44,74336.8,6.99,-11.77,-11.15,0,*76
1500779224.95,59732,21.38,74336.0,6.99,-11.93,-11.23,0,*7A
1500779226.18,59733,21.44,74336.8,6.97,-11.93,-11.45,0,*75
1500779227.4,59734,21.44,74338.3,6.97,-12.03,-11.33,0,*79
1500779228.62,59735,21.44,74336.8,6.97,-12.15,-11.45,0,*7E
1500779229.84,59736,21.44,74338.5,6.97,-12.15,-11.45,0,*7D
1500779231.09,59737,21.38,74336.0,6.99,-12.25,-11.59,0,*7C
1500779232.32,59738,21.44,74340.8,6.97,-12.29,-11.63,0,*78
1500779233.55,59739,21.38,74338.5,6.97,-12.21,-11.51,0,*70
1500779234.8,59740,21.44,74342.0,6.99,-12.15,-11.41,0,*76
1500779236.05,59741,21.38,74338.3,6.97,-12.07,-11.33,0,*7F
1500779237.29,59742,21.38,74338.8,6.97,-12.15,-11.37,0,*7B
1500779238.55,59743,21.38,74336.3,6.99,-12.11,-11.41,0,*71
1500779239.82,59744,21.38,74336.0,6.99,-12.11,-11.33,0,*73
1500779241.01,59745,21.38,74336.3,6.97,-12.03,-11.15,0,*7B
1500779242.24,59746,21.38,74338.5,6.97,-11.93,-11.23,0,*77
1500779243.46,59747,21.38,74336.0,6.97,-11.93,-11.11,0,*77
1500779244.66,59748,21.44,74338.3,6.97,-12.03,-11.19,0,*7A
1500779245.88,59749,21.38,74338.8,6.97,-11.85,-11.01,0,*7F
1500779247.11,59750,21.44,74338.0,6.97,-11.93,-11.11,0,*71
1500779248.35,59751,21.44,74336.8,6.99,-11.73,-11.01,0,*71
1500779249.61,59752,21.44,74338.8,6.99,-11.77,-11.01,0,*76
1500779250.88,59753,21.44,74338.0,6.99,-11.51,-10.79,0,*7D
1500779252.16,59754,21.38,74336.3,6.99,-11.59,-10.79,0,*72
1500779253.44,59755,21.44,74338.0,6.99,-11.59,-10.79,0,*73
1500779254.69,59756,21.38,74338.3,7.03,-11.59,-10.85,0,*71
1500779255.97,59757,21.38,74336.0,7.03,-11.59,-10.75,0,*7F
1500779257.22,59758,21.44,74338.8,7.03,-11.59,-10.85,0,*7F
1500779258.44,59759,21.38,74336.3,7.05,-11.81,-10.89,0,*71
1500779259.69,59760,21.38,74338.3,7.03,-11.73,-10.97,0,*7F
1500779260.94,59761,21.38,74336.8,7.03,-11.67,-10.89,0,*74
1500779262.22,59762,21.38,74338.5,7.03,-11.59,-10.75,0,*79
1500779263.44,59763,21.44,74340.0,7.05,-11.67,-10.85,0,*7C
1500779264.7,59764,21.38,74336.8,6.99,-11.63,-10.89,0,*77
1500779265.94,59765,21.38,74336.8,7.03,-11.81,-10.89,0,*78
1500779267.17,59766,21.38,74338.5,7.05,-11.59,-10.89,0,*78
1500779268.42,59767,21.38,74338.8,7.03,-11.59,-10.85,0,*73
1500779269.67,59768,21.38,74338.3,6.99,-11.73,-10.89,0,*7A
1500779270.95,59769,21.38,74340.8,6.99,-11.63,-10.79,0,*75
1500779272.19,59770,21.38,74338.5,7.03,-11.67,-10.85,0,*78
1500779273.42,59771,21.38,74336.8,7.05,-11.67,-10.89,0,*73
1500779274.68,59772,21.38,74336.3,7.03,-11.45,-10.63,0,*72
1500779275.94,59773,21.38,74336.5,7.03,-11.45,-10.63,0,*73
1500779277.2,59774,21.38,74338.5,7.03,-11.45,-10.63,0,*74
1500779278.43,59775,21.44,74338.5,7.05,-11.37,-10.53,0,*75
1500779279.63,59776,21.44,74342.5,7.05,-11.41,-10.53,0,*77
1500779280.86,59777,21.44,74342.0,7.03,-11.41,-10.57,0,*74
1500779282.11,59778,21.44,74338.8,7.03,-11.59,-10.85,0,*7D
1500779283.36,59779,21.38,74336.8,7.05,-11.67,-10.75,0,*78
1500779284.61,59780,21.38,74336.3,7.05,-11.59,-10.71,0,*77
1500779285.87,59781,21.38,74336.8,7.05,-11.55,-10.63,0,*79
1500779287.14,59782,21.38,74338.3,7.03,-11.55,-10.71,0,*7F
1500779288.37,59783,21.44,74340.8,7.05,-11.45,-10.71,0,*79
1500779289.64,59784,21.38,74336.5,7.03,-11.45,-10.63,0,*7B
1500779290.92,59785,21.38,74340.8,7.03,-11.59,-10.63,0,*77
1500779292.15,59786,21.38,74336.5,7.05,-11.45,-10.71,0,*7C
1500779293.4,59787,21.38,74338.0,7.05,-11.59,-10.71,0,*70
1500779294.63,59788,21.38,74340.3,7.05,-11.45,-10.63,0,*71
1500779295.89,59789,21.38,74342.0,7.03,-11.45,-10.63,0,*76
1500779297.15,59790,21.38,74340.3,7.05,-11.55,-10.63,0,*79
1500779298.4,59791,21.44,74340.3,7.05,-11.55,-10.71,0,*7B
1500779299.65,59792,21.38,74340.8,7.05,-11.55,-10.71,0,*78
1500779300.91,59793,21.38,74340.8,7.03,-11.45,-10.63,0,*7D
1500779302.12,59794,21.38,74340.3,7.05,-11.45,-10.57,0,*7B
1500779303.35,59795,21.38,74338.8,7.05,-11.55,-10.57,0,*7B
1500779304.63,59796,21.38,74340.0,7.03,-11.55,-10.63,0,*79
1500779305.86,59797,21.44,74342.8,7.05,-11.45,-10.63,0,*7F